Airports & Charts

SJU | TJSJ – Luis Munoz Marin International Airport

San Juan, Puerto RicoAirspace Class: Class C

TJSJ 222056Z 06014KT 10SM FEW033 FEW045 29/24 A2999 RMK AO2 SLP153 T02890244 56008 $

 

Flight Planner at SkyVector.com

Click Chart to Enlarge (Opens in Same Window)

 

AIRAC Cycle: 1501

AD – Airport Diagram
AIRPORT DIAGRAM  
SIDs – Standard Instrument Departures
ACONY ONE (RNAV) RNAV Turbojet  
CRSTL ONE RNAV  
GANBO ONE (RNAV) RNAV Turbojet  
GLADA TWO (RNAV) RNAV Turbojet  
HAMAR ONE (RNAV) RNAV Prop/Turboprop  
JAAWS NINE   
JETSS ONE   
SNGRA ONE (RNAV) RNAV Prop/Turboprop  
VERMO FIVE   
NOTE: Special Take-Off Minimums/Departure Procedures apply   
STARs – Standard Terminal Arrivals
BEANO THREE (RNAV) RNAV Turbojet  
CHAKA FOUR (RNAV) RNAV Prop/Turboprop  
JOSHE THREE (RNAV) (Cont.) RNAV Turbojet  
SAALR TWO (RNAV) RNAV Turbojet  
TROCO THREE (RNAV) RNAV Turbojet  
IAPs – Instrument Approach Procedures
ILS OR LOC RWY 08   
ILS OR LOC RWY 10   
RNAV (GPS) RWY 08 RNAV  
RNAV (GPS) RWY 10 RNAV    
RNAV (GPS) RWY 26 RNAV    
VOR OR TACAN RWY 08   
VOR OR TACAN RWY 10   
VOR OR TACAN RWY 26   
NDB RWY 08   
BRIDGE VISUAL RWY 10   
LAGOON VISUAL RWY 08   
NOTE: Special Alternate Minimums apply   

 

 

 

SXM | TNCM – Princess Juliana International Airport

Philipsburg, St. MaartenAirspace Class: Class C

TNCM 222100Z 09010KT 9999 FEW021 29/22 Q1015 A2999 NOSIG RMK LGT HZ

 

Flight Planner at SkyVector.com

Click Chart to Enlarge (Opens in Same Window)

 

Chart Packet
SXM Chart Packet  

 

 

STT | TIST – Cyril E King Airport

Charlotte Amalie West, St. Thomas, U.S.V.I.Airspace Class: Class C

TIST 222055Z VRB06KT 9999 SCT018 29/20 A2998 RMK AO2A SLP151 WND DATA ESTMD

 

Flight Planner at SkyVector.com

 Click Chart to Enlarge (Opens in Same Window)

 

AIRAC Cycle: 1501

AD – Airport Diagram
AIRPORT DIAGRAM  
SIDs – Standard Instrument Departures
PALCO SIX   
NOTE: Special Take-Off Minimums/Departure Procedures apply   
IAPs – Instrument Approach Procedures
ILS RWY 10   
RNAV (GPS) RWY 10 RNAV  
VOR-A   
NOTE: Special Alternate Minimums apply   

 

 

STX | TISX – Henry E Rohlsen Airport

Christiansted, St. Croix, U.S.V.I.Airspace Class: Class D

TISX 202037Z 12009KT 9000 DU SCT030 30/23 A2992 RMK SLPNO WND DATA ESTMD ALSTG ESTMD LAST

 

Flight Planner at SkyVector.com

Click Chart to Enlarge (Opens in Same Window)

 

AIRAC Cycle: 1501

AD – Airport Diagram
AIRPORT DIAGRAM  
SIDs – Standard Instrument Departures
HAMILTON SEVEN Prop/Turboprop  
SNOOZ THREE Prop/Turboprop  
NOTE: Special Take-Off Minimums/Departure Procedures apply   
IAPs – Instrument Approach Procedures
ILS OR LOC RWY 10   
RNAV (GPS) RWY 10 RNAV   
RNAV (GPS) RWY 28 RNAV    
VOR RWY 28   
NOTE: Special Alternate Minimums apply   

 

 

BQN | TJBQ – Rafael Hernandez Airport

Aguadilla, Puerto RicoAirspace Class: Class D

TJBQ 222050Z 09013KT 10SM SCT023 SCT075 28/23 A2999

 

Flight Planner at SkyVector.com

Click Chart to Enlarge (Opens in Same Window)

 

AIRAC Cycle: 1501

AD – Airport Diagram
AIRPORT DIAGRAM
IAPs – Instrument Approach Procedures
RNAV (GPS) RWY 08 RNAV     
RNAV (GPS) RWY 26 RNAV   
VOR/DME OR TACAN RWY 08   
VOR/DME OR TACAN RWY 26   
VOR RWY 08   
NOTE: Special Take-Off Minimums/Departure Procedures apply   

 

 

SIG | TJIG – Fernando Luis Ribas Dominicci Airport

San Juan, Puerto RicoAirspace Class: Class D

TJIG 222053Z 10010KT 9SM SCT030 29/23 A3000

 

Flight Planner at SkyVector.com

Click Chart to Enlarge (Opens in Same Window)

 

AIRAC Cycle: 1501

AD – Airport Diagram
AIRPORT DIAGRAM
IAPs – Instrument Approach Procedures
RNAV (GPS) RWY 09 RNAV     

 

 

AXA | TQPF – Clayton J Lloyd International Airport

The Valley, AnguillaAirspace Class: Class D

TQPF 222100Z 08011KT 9999 FEW019TCU 28/22 Q1016

 

Flight Planner at SkyVector.com

Click Chart to Enlarge (Opens in Same Window)

 

Chart Packet
AXA Chart Packet  

 

 

SBH | TFFJ – St. Barthélemy Airport

St.Jean, St. BarthélemyAirspace Class: Class E

TNCM 222100Z 09010KT 9999 FEW021 29/22 Q1015 A2999 NOSIG RMK LGT HZ

 

Flight Planner at SkyVector.com

Click Chart to Enlarge (Opens in Same Window)

 

Chart Packet
SBH Chart Packet  

 

 

SFG | TFFG – Grand Case Airport

Grand Case, St. MartinAirspace Class: Class E

TNCM 222100Z 09010KT 9999 FEW021 29/22 Q1015 A2999 NOSIG RMK LGT HZ

 

Flight Planner at SkyVector.com

Click Chart to Enlarge (Opens in Same Window)

 

Chart Packet
SFG Chart Packet  

 

 

PSE | TJPS – Mercedita Airport

Ponce, Puerto RicoAirspace Class: Class E

TJPS 222055Z AUTO 12011G18KT 9999 CLR 30/20 A2996 RMK AO2 SLP144 WND DATA ESTMD T03010203 56008 $

 

Flight Planner at SkyVector.com

Click Chart to Enlarge (Opens in Same Window) 

 

AIRAC Cycle: 1501

IAPs – Instrument Approach Procedures
RNAV (GPS) RWY 12 RNAV  
RNAV (GPS) RWY 30 RNAV  
VOR-A   
NOTE: Special Take-Off Minimums/Departure Procedures apply   

 

 

MAZ | TJMZ – Eugenio Maria de Hostos Airport

Mayaguez, Puerto RicoAirspace Class: Class E

TJMZ 101550Z 11009KT 10SM SCT050 33/24

 

Flight Planner at SkyVector.com

Click Chart to Enlarge (Opens in Same Window) 

 

AIRAC Cycle: 1501

AD – Airport Diagram
AIRPORT DIAGRAM  
IAPs – Instrument Approach Procedures
RNAV (GPS) RWY 09 RNAV   
VOR RWY 09   
NOTE: Special Alternate Minimums apply   
NOTE: Special Take-Off Minimums/Departure Procedures apply   

 

VQS | TJVQ – Antonio Rivera Rodriguez Airport

Isla de Vieques, Puerto RicoAirspace Class: Class G

TJNR 200425Z AUTO 01033G45KT 1 3/4SM +RA BR FEW016 BKN037 OVC060 26/25 A2964 RMK AO2 PK WND 02048/0413 P0011 T02610250

 

Flight Planner at SkyVector.com

Click Chart to Enlarge (Opens in Same Window) 

 

AIRAC Cycle: 1501

SIDs – Standard Instrument Departures
VEDAS THREE (RNAV) RNAV     
NOTE: Special Take-Off Minimums/Departure Procedures apply   
IAPs – Instrument Approach Procedures
RNAV (GPS) RWY 09 RNAV